Regional Weather Roundup
Issued by NWS Northern Indiana

Home | Current Version | Previous Version | Text Only | Print | Product List | Glossary Off
Versions: 1 2 3 4 5 6 7 8 9 10 11 12 13 14 15 16 17 18 19 20 21 22 23 24 25 26 27 28 29 30 31 32 33 34 35 36 37 38 39 40 41 42 43 44 45 46 47 48 49 50

000
ASUS43 KIWX 052100
RWRIWX

KIWX WEATHER ROUNDUP
NATIONAL WEATHER SERVICE NORTHERN INDIANA
400 PM EST MON DEC 05 2016

NOTE: "FAIR" INDICATES FEW OR NO CLOUDS BELOW 12,000 FEET WITH NO
SIGNIFICANT WEATHER AND/OR OBSTRUCTIONS TO VISIBILITY.

* THESE STATIONS ARE NOT UNDER NWS QUALITY CONTROL. THEY ALSO MAY NOT
  REPORT WEATHER SUCH AS PRECIPITATION OR FOG.

INZ001>027-052200-
NORTHERN INDIANA

CITY           SKY/WX    TMP DP  RH WIND       PRES   REMARKS
GARY*          CLOUDY    34  32  93 VRB3      30.02F
SOUTH BEND     CLOUDY    32  30  92 S9        30.04F WCI  24
ELKHART*       CLOUDY    32  30  93 S7        30.05S WCI  26
GOSHEN         CLOUDY    34  28  79 S8        30.05S WCI  27
MONTICELLO*    MOSUNNY   38  31  74 E5        30.01F
ANGOLA*        CLOUDY    32  28  86 SW7       30.06S WCI  26
FORT WAYNE     PTSUNNY   36  30  79 S5        30.06F

$$
INZ028>050-052200-
CENTRAL INDIANA

CITY           SKY/WX    TMP DP  RH WIND       PRES   REMARKS
LAFAYETTE      SUNNY     39  34  82 E7        30.01F
KOKOMO*        SUNNY     40  34  79 E8        30.03F
MUNCIE*        SUNNY     43  34  70 E6        30.04S
INDIANAPOLIS   PTSUNNY   42  33  70 E8        30.00F

$$
MIZ043>046-050>051-056>058-064>065-071>073-077>080-052200-
SOUTHWEST LOWER MICHIGAN

CITY           SKY/WX    TMP DP  RH WIND       PRES   REMARKS
BATTLE CREEK   CLOUDY    34  30  85 SW12      30.05R WCI  25
BENTON HARBOR  CLOUDY    34  29  82 S7        30.03S WCI  28
COLDWATER*     CLOUDY    34  30  85 SW7       30.06R WCI  28
HILLSDALE*     CLOUDY    32  28  86 SW6       30.05R WCI  26
HOLLAND        CLOUDY    36  32  85 S15       30.04R
GRAND RAPIDS   MOCLDY    37  31  78 S15       30.03R
KALAMAZOO      CLOUDY    34  27  75 S13       30.05R HAZE    WCI  25
STURGIS*       CLOUDY    34  29  83 S8        30.05R WCI  27
THREE RIVERS*  CLOUDY    34  31  88 S6        30.06R WCI  29

$$
OHZ001>008-015>018-024>025-052200-
NORTHWEST OHIO

CITY           SKY/WX    TMP DP  RH WIND       PRES   REMARKS
DEFIANCE       CLOUDY    37  28  70 SW7       30.08F
FINDLAY        CLOUDY    38  29  70 S7        30.07F
TOLEDO EXPRESS CLOUDY    36  30  79 SW8       30.09R
TOLEDO METCALF CLOUDY    38  30  73 SW9       30.10R
LIMA           MOCLDY    36  31  82 S3        30.06F

$$
AND FOR LAKE MICHIGAN COASTAL AND OPEN LAKE BUOY OBSERVATIONS

STATION/POSITION TEMP    WIND        PRES    VSBY  WAVE
                 AIR SEA DIR/SP/G                  HT/PER
                 (F)     (DEG/KT/KT) (MB)    (MI)  (FT/S)
CALUMET HARBOR    32     160/ 11/ 14 1016.0S
BURNS HARBOR      33     200/ 14/ 16 1017.3S
SAINT JOSEPH      34     190/  3/ 13 1016.9F

$$
&&




USA.gov is the U.S. government's official web portal to all federal, state and local government web resources and services.